Location: Golden Pond Observatory
(36.7773°N, 88.0631°W)
Time: 19:20:32
(UTC-06:00)

Envisat - Visible Passes

Search period start: 15 November 2019 00:00
Search period end: 25 November 2019 00:00
Orbit: 764 x 766 km, 98.1° (Epoch: 14 November)

Date Brightness Start Highest point End Pass type
(mag) Time Alt. Az. Time Alt. Az. Time Alt. Az.
15 Nov 5.5 05:53:33 10° NE 05:57:47 26° E 06:02:00 10° SSE visible
15 Nov 3.8 17:05:53 10° SE 17:10:08 28° ENE 17:14:25 10° NNE visible
15 Nov 4.9 18:44:37 10° SSW 18:49:03 30° W 18:53:29 10° NW visible
16 Nov 6.5 05:19:26 10° ENE 05:20:41 11° E 05:21:55 10° ESE visible
16 Nov 3.2 18:07:06 10° S 18:12:10 71° WSW 18:17:15 10° NNW visible
17 Nov 3.2 17:30:36 10° SSE 17:35:28 49° ENE 17:40:22 10° N visible
17 Nov 5.8 19:11:32 10° SW 19:14:44 17° W 19:17:55 10° NW visible
18 Nov 5.9 05:42:41 10° NE 05:46:26 21° E 05:50:10 10° SE visible
18 Nov 4.4 18:33:00 10° SSW 18:37:42 38° W 18:42:27 10° NNW visible
19 Nov 2.9 17:55:49 10° SSE 18:00:53 89° E 18:05:59 10° NNW visible
20 Nov 4.8 06:07:23 10° NNE 06:12:05 37° E 06:16:45 10° SSE visible
20 Nov 3.4 17:19:35 10° SE 17:24:15 39° ENE 17:28:56 10° N visible
20 Nov 5.4 18:59:32 10° SW 19:03:21 21° W 19:07:12 10° NW visible
21 Nov 6.0 05:31:59 10° NE 05:35:04 16° E 05:38:08 10° SE visible
21 Nov 3.9 18:21:30 10° S 18:26:24 50° W 18:31:20 10° NNW visible
22 Nov 2.9 17:44:36 10° SSE 17:49:37 70° ENE 17:54:42 10° N visible
22 Nov 6.2 19:27:33 10° WSW 19:29:06 11° W 19:30:40 10° WNW visible
23 Nov 5.3 05:56:22 10° NE 06:00:46 29° E 06:05:07 10° SSE visible
23 Nov 3.7 17:08:40 10° SE 17:13:03 30° ENE 17:17:28 10° N visible
23 Nov 5.0 18:47:44 10° SSW 18:52:00 27° W 18:56:19 10° NW visible
24 Nov 6.3 05:21:42 10° ENE 05:23:41 12° E 05:25:39 10° ESE visible
24 Nov 3.4 18:10:05 10° S 18:15:06 65° WSW 18:20:10 10° NNW visible
